Theta_e
345 346 346 345 343 344 344 343 342 342 344 344 343 337 340 338 342 345 345 345 345 342 335 342 338 339 341 341 339 339 340 341 339 338 337 338 340 341 338 332 331 331 333
343 348 347 348 345 346 343 345 345 342 343 342 345 347 346 345 343 346 345 345 345 344 344 343 344 341 342 341 341 337 337 340 342 340 339 340 339 339 340 340 336 332 332
346 346 348 349 348 346 347 341 344 343 341 342 342 346 346 345 345 344 342 342 343 344 340 340 343 343 341 339 340 338 332 335 340 339 339 340 338 339 339 338 337 338 334
349 346 348 348 349 348 346 343 345 348 343 345 344 344 345 346 344 344 345 344 342 341 337 341 339 340 340 336 338 338 337 333 328 334 329 329 329 335 337 337 336 336 337
351 351 347 348 348 347 345 342 345 345 344 345 344 344 345 345 346 345 344 344 341 341 340 338 338 340 340 339 338 337 334 331 332 332 329 328 329 335 336 336 336 335 334
350 352 350 348 349 348 346 347 347 349 350 347 346 344 346 346 346 345 343 342 342 338 338 337 334 335 336 334 335 335 335 333 328 327 327 332 335 335 335 335 335 335 334
349 352 352 348 344 348 349 349 350 351 348 351 350 346 346 346 346 345 341 341 340 342 337 334 333 331 327 325 324 328 331 334 334 334 334 334 332 334 333 334 335 334 334
347 345 347 342 347 349 349 350 352 352 350 352 350 347 347 346 346 344 340 339 339 337 335 334 332 330 329 328 327 326 320 324 330 334 334 333 331 331 331 332 333 334 334
345 346 345 347 348 349 349 351 352 350 352 352 350 347 349 347 343 344 338 338 336 335 335 334 332 330 328 325 321 318 315 313 324 328 331 332 330 328 328 328 329 332 332
346 346 347 348 349 349 351 353 350 352 353 353 351 349 347 343 342 343 338 337 335 335 332 333 331 324 320 317 314 314 312 309 311 320 327 330 330 326 327 329 331 330 322
347 349 350 349 350 349 351 351 350 353 353 353 349 345 342 339 337 337 338 337 336 334 334 331 323 321 318 315 317 318 319 313 308 309 313 326 328 329 325 324 324 322 325
348 350 349 348 349 350 351 351 351 353 352 352 347 342 336 333 334 334 336 333 333 333 331 321 321 320 317 317 319 319 319 319 317 309 310 311 321 329 328 326 323 324 325
349 347 350 351 350 351 352 348 352 352 351 349 345 340 333 334 332 330 330 334 330 323 323 323 320 318 317 318 319 318 318 318 318 318 314 309 311 314 326 328 327 324 324
348 346 346 349 351 351 347 349 354 349 352 347 344 336 330 331 331 327 328 326 327 330 324 324 320 318 318 318 319 319 318 318 318 318 318 318 316 311 312 320 327 327 328
348 348 344 347 353 351 348 351 354 351 353 346 340 333 328 326 318 309 309 310 319 326 322 320 321 318 318 318 319 318 318 318 318 319 318 319 319 318 314 312 315 324 325
343 343 349 352 353 350 349 353 355 354 355 346 336 327 321 318 312 309 311 311 312 318 320 319 318 318 318 318 319 318 319 319 319 317 317 319 319 318 317 315 313 318 324
337 341 346 348 350 351 352 353 356 356 355 347 335 324 318 313 309 309 311 311 312 313 316 317 318 319 317 318 318 318 319 318 318 317 317 317 317 318 318 316 314 312 315
337 342 345 347 350 354 355 354 357 357 350 348 334 320 312 308 308 307 307 307 310 314 316 316 316 315 316 318 318 318 319 320 318 317 317 317 317 317 317 318 316 315 312
339 342 343 345 351 355 355 356 355 358 349 347 333 317 309 307 306 305 304 304 307 312 318 319 318 317 317 318 318 319 319 319 318 317 317 317 317 316 316 317 317 317 315
340 342 344 347 351 355 355 356 356 359 348 347 330 316 308 306 305 304 304 310 318 319 320 319 318 318 318 318 318 319 319 319 319 317 317 317 316 316 315 316 316 317 317
340 342 344 347 351 354 355 353 353 359 351 346 328 314 307 306 305 305 310 318 319 319 319 318 318 318 318 317 318 318 320 321 319 317 317 316 315 315 315 316 316 316 316
341 341 344 347 351 353 356 356 356 357 350 345 326 313 307 306 306 309 315 318 319 319 318 318 317 316 316 317 317 318 319 318 317 316 316 316 315 314 315 315 315 315 315
341 340 344 347 349 351 355 356 355 356 350 343 323 312 309 307 308 310 313 314 317 318 318 318 318 318 316 315 316 318 319 318 316 316 316 315 314 314 315 315 315 315 316
340 340 344 347 347 348 354 358 357 354 350 341 320 313 310 309 308 310 312 313 314 317 318 318 318 318 316 316 317 316 316 316 317 316 316 316 314 313 313 314 314 315 315
339 340 344 348 347 350 353 358 356 354 349 341 321 316 310 309 307 310 312 313 312 316 318 318 318 318 317 315 316 318 318 316 317 316 316 315 313 312 312 314 316 319 318
338 341 346 350 350 353 355 359 357 352 350 343 326 318 311 310 308 310 311 312 312 316 319 318 317 319 318 316 314 317 319 319 318 318 316 312 313 313 311 313 316 317 316
Wind_Speed
4 10 10 10 10 9 10 9 9 13 13 9 10 10 12 15 11 11 9 8 14 15 14 17 19 24 24 24 23 24 28 30 31 29 28 28 27 28 28 28 26 26 24
4 6 8 9 7 7 14 9 10 12 14 14 13 11 12 12 10 10 10 7 14 20 12 15 18 21 24 23 23 19 28 31 31 33 28 28 24 24 26 28 26 26 25
2 7 8 11 9 7 12 15 11 13 17 12 14 11 11 10 9 12 11 7 9 15 13 15 18 21 20 24 28 25 26 26 14 16 21 20 20 23 24 25 25 26 25
3 6 8 9 9 10 13 16 13 7 14 13 13 9 9 4 5 8 8 9 9 9 20 17 14 17 21 20 24 24 18 26 16 17 20 14 22 24 20 23 22 21 22
2 5 9 9 10 10 12 12 11 11 13 15 13 11 4 4 15 9 11 8 8 11 11 9 7 8 11 11 11 12 9 6 5 12 13 15 20 22 19 21 22 21 21
4 6 7 11 10 11 10 10 12 13 16 17 13 12 5 8 16 10 13 9 10 8 6 7 8 9 12 15 14 13 7 0 3 5 11 14 18 14 15 18 18 18 19
5 5 9 10 9 9 10 13 14 17 17 16 16 13 7 8 14 8 9 11 9 4 6 10 12 12 14 19 21 17 12 4 2 6 10 10 10 13 15 15 17 18 18
3 8 7 7 9 10 12 13 14 16 16 16 16 10 6 5 10 3 9 8 9 6 6 10 9 11 13 14 13 15 16 11 6 6 5 7 8 11 14 15 14 15 17
5 8 7 8 9 11 13 13 14 15 16 15 12 8 2 3 5 2 8 8 7 2 5 6 8 10 11 11 12 12 11 8 7 6 5 7 7 10 11 12 13 16 17
6 8 10 12 11 11 12 14 14 16 15 15 11 10 9 5 1 3 6 5 3 4 5 4 5 10 14 17 18 16 11 7 8 8 7 8 9 12 13 13 14 16 19
7 7 11 12 7 9 13 14 16 16 16 16 10 10 8 4 3 6 6 4 4 1 1 3 6 12 17 20 19 15 10 4 5 7 9 11 12 13 13 14 15 18 20
4 6 9 9 6 8 13 15 15 16 16 16 12 12 8 5 6 3 6 7 3 5 3 2 6 9 15 18 15 13 12 10 5 3 6 8 11 14 18 19 19 21 22
6 9 9 12 12 12 16 15 14 15 16 15 12 10 8 7 7 6 5 3 4 10 3 3 6 10 13 15 12 11 11 12 8 3 2 5 8 13 16 19 23 25 27
10 9 12 12 12 15 15 14 13 15 14 12 10 10 9 9 9 8 4 3 8 4 6 4 5 7 10 12 8 9 9 10 10 6 4 3 7 11 14 17 15 19 23
11 14 12 11 13 18 14 11 11 15 13 11 11 10 10 10 10 10 9 6 1 4 3 3 5 7 9 9 6 6 8 9 9 8 6 5 3 9 13 17 19 17 19
12 10 8 10 15 14 12 10 11 14 11 11 11 10 10 11 11 10 11 11 8 2 3 5 6 6 9 8 3 5 6 6 6 9 9 7 6 2 8 14 18 23 21
12 11 11 12 13 11 10 9 10 14 10 10 10 10 10 11 10 10 11 10 10 8 6 4 7 10 10 5 3 3 4 5 7 7 9 9 6 6 3 8 16 21 25
15 11 10 11 12 9 9 8 9 11 11 10 10 9 9 9 8 10 11 11 11 11 7 8 9 11 6 2 2 4 5 4 5 6 4 6 9 9 4 1 6 12 18
14 13 13 12 10 10 8 7 9 11 11 10 9 8 9 9 10 12 13 12 12 12 12 11 7 4 2 1 1 4 4 3 4 5 7 7 6 10 4 3 5 7 13
15 14 12 11 10 9 8 6 9 8 9 9 7 7 8 8 11 12 11 14 14 13 15 15 10 6 2 3 5 8 7 4 6 7 10 10 4 6 5 2 7 9 10
15 13 12 11 10 10 7 5 9 8 8 7 6 5 6 7 9 11 12 15 15 16 18 19 18 14 10 7 8 9 7 4 5 8 9 1 2 6 3 2 6 10 11
16 15 13 11 11 10 9 7 8 7 7 6 5 4 5 7 9 11 13 15 16 18 21 22 23 22 20 16 12 9 5 5 6 4 1 6 5 3 2 1 6 9 11
17 16 14 12 11 11 9 7 7 5 6 4 2 3 4 5 7 8 11 13 13 17 21 23 25 29 25 21 16 9 7 11 11 9 2 4 4 3 4 4 8 13 14
18 17 14 13 12 10 9 6 8 5 4 3 1 2 3 3 5 6 7 10 13 12 17 20 23 26 25 22 19 13 7 7 9 10 3 4 4 8 8 7 7 9 12
20 18 15 14 14 12 9 7 8 6 5 5 4 2 2 2 3 7 5 8 11 11 12 14 18 22 25 27 26 18 15 3 9 14 11 6 6 17 16 13 6 8 13
19 18 16 15 13 13 10 9 8 8 8 8 8 6 5 3 2 5 6 7 9 9 9 11 13 17 22 25 25 22 21 21 15 10 14 15 7 10 24 20 18 22 21
Wind_Direction
34 40 41 29 28 33 19 11 7 19 10 356 338 321 299 303 287 288 272 274 263 246 258 304 272 263 253 256 251 248 254 251 243 235 231 227 222 218 214 213 213 210 208
359 21 30 38 38 38 19 2 12 15 12 6 359 335 316 319 305 308 305 287 256 249 277 278 261 253 259 260 256 264 258 259 247 233 227 227 227 227 221 216 214 210 208
336 5 354 10 23 17 9 19 16 20 6 355 354 333 321 318 317 315 311 301 284 254 268 275 269 267 272 268 265 285 252 286 227 210 208 214 220 223 221 220 214 213 210
338 344 348 359 5 2 357 8 2 359 350 356 358 352 347 326 5 332 332 321 293 263 279 282 287 276 281 280 273 274 237 283 313 266 289 263 247 239 216 219 217 213 213
347 354 342 339 339 352 351 359 7 354 353 4 11 19 31 344 7 36 19 360 290 285 303 333 335 322 314 321 304 276 219 230 262 245 241 254 206 199 212 213 212 206 208
334 283 310 328 330 328 344 343 352 356 356 2 16 14 3 6 18 38 19 1 2 2 4 37 45 31 39 44 41 56 58 329 123 224 187 204 213 208 209 211 209 205 204
297 270 300 307 338 352 349 342 348 353 357 4 12 18 33 7 354 36 5 4 23 48 64 85 78 61 44 42 39 32 26 33 219 223 225 229 216 197 207 201 202 200 199
326 348 314 305 317 333 335 337 346 347 358 6 8 9 5 8 354 21 5 22 69 58 68 74 66 63 48 39 43 16 360 343 324 265 235 217 212 198 198 198 199 201 199
326 313 327 340 334 333 335 341 346 348 356 3 10 20 321 354 348 76 29 82 70 27 69 63 51 46 35 25 4 351 335 316 293 289 259 235 206 198 195 198 194 194 193
298 314 321 315 316 332 341 347 346 349 351 356 9 15 26 62 349 148 83 120 109 108 19 58 46 26 11 2 355 351 347 321 280 258 243 224 212 203 196 196 196 195 188
280 321 333 330 300 325 339 345 348 351 349 354 6 17 25 66 111 151 157 128 138 345 73 0 27 13 11 5 6 4 9 359 287 271 245 236 228 213 205 198 195 191 191
283 342 349 1 10 336 339 346 356 352 352 357 11 20 32 85 93 103 128 132 142 148 156 112 20 9 8 10 18 17 12 19 20 274 256 236 222 213 210 199 198 199 200
281 305 329 344 347 342 342 351 357 358 355 1 6 23 37 57 60 47 37 199 197 159 191 315 5 3 3 15 25 25 12 7 5 356 261 239 234 224 216 219 217 212 216
285 306 310 332 340 346 350 356 1 1 357 5 12 22 25 40 24 5 347 310 182 235 221 274 333 341 354 7 10 21 7 6 12 347 320 269 235 231 228 220 215 216 220
278 295 308 326 342 345 344 354 1 357 351 2 14 17 16 24 11 10 26 32 314 232 205 271 295 317 341 348 351 3 355 4 12 32 32 1 292 236 228 226 215 212 220
270 287 305 324 332 334 337 356 359 346 351 8 15 12 11 17 16 22 27 27 30 8 262 276 283 302 329 343 336 358 10 29 36 32 15 36 29 331 229 219 208 211 214
267 273 288 308 321 322 340 349 354 351 347 5 9 9 7 15 13 20 18 21 25 23 359 302 288 301 319 323 338 5 34 31 29 47 41 46 43 31 358 231 218 210 216
256 259 277 296 309 309 333 349 341 346 348 358 3 14 14 21 21 30 25 25 24 19 357 320 300 297 304 318 22 355 332 341 16 26 15 20 18 16 359 300 222 212 214
252 261 275 285 290 299 322 339 340 324 348 345 0 13 20 28 28 32 24 24 25 16 8 350 338 338 305 262 320 328 341 347 328 344 355 289 333 347 333 212 205 203 205
252 261 267 273 282 294 311 330 320 324 337 337 356 10 23 35 40 41 38 46 36 34 37 38 40 35 14 318 322 333 319 291 293 298 315 309 320 344 332 218 191 181 194
244 252 256 267 276 284 291 308 321 323 323 335 350 14 34 47 51 60 61 61 54 52 49 48 46 35 18 340 324 334 333 293 276 278 314 57 4 3 24 165 180 191 194
236 242 252 266 271 273 270 291 311 324 324 328 348 23 53 65 63 73 76 71 62 55 50 45 43 35 27 16 5 2 6 356 329 340 203 26 40 26 14 153 193 202 209
231 237 248 258 259 260 262 274 296 312 303 310 352 33 64 86 79 79 80 70 63 54 48 42 41 34 29 23 16 7 355 1 18 11 30 46 63 14 327 282 242 233 228
227 231 243 249 249 252 253 253 276 276 276 265 205 67 61 81 94 94 78 71 57 51 48 42 40 38 32 26 18 5 347 355 25 32 62 79 54 29 357 322 280 235 215
224 226 236 241 243 248 251 242 263 258 247 232 209 178 130 109 95 116 81 64 58 46 42 44 38 35 31 28 35 46 47 61 48 48 49 38 102 51 43 43 58 130 154
223 224 232 237 241 247 251 244 250 253 240 230 219 203 171 157 143 122 94 60 57 52 44 42 33 32 30 28 36 42 49 60 57 52 43 40 52 93 54 58 87 109 123